Regional Weather Roundup
Issued by NWS

Home | Current Version | Previous Version | Graphics & Text | Print | Product List | Glossary Off
Versions: 1 2 3 4 5 6 7 8 9 10 11 12 13 14 15 16 17 18 19 20 21 22 23 24 25 26 27 28 29 30 31 32 33 34 35 36 37 38 39 40 41 42 43 44 45 46 47 48 49 50

000
ASUS44 KFWD 311810
RWRTX
NORTH TEXAS HOURLY WEATHER ROUNDUP
NATIONAL WEATHER SERVICE FORT WORTH TX
100 PM CDT FRI OCT 31 2014

NOTE: "FAIR" INDICATES FEW OR NO CLOUDS BELOW 12,000 FEET WITH NO
SIGNIFICANT WEATHER AND/OR OBSTRUCTIONS TO VISIBILITY.

TXZ118-119-311900-
DALLAS/FORT WORTH METROPLEX

CITY           SKY/WX    TMP DP  RH WIND       PRES   REMARKS
DFW AIRPORT    SUNNY     65  41  41 N18       30.33F
6HR MIN TEMP:  53; 6HR MAX TEMP:  65;

DALLAS LOVE    SUNNY     65  41  41 N14G23    30.33F
6HR MIN TEMP:  53; 6HR MAX TEMP:  65;

FTW MEACHAM    SUNNY     65  41  41 N17G24    30.34F
6HR MIN TEMP:  55; 6HR MAX TEMP:  65;

DAL-EXECUTIVE  SUNNY     68  40  35 N18G24    30.31F
6HR MIN TEMP:  53; 6HR MAX TEMP:  68;

FTW-ALLIANCE   SUNNY     63  40  42 N14       30.35F
6HR MIN TEMP:  50; 6HR MAX TEMP:  63;

FTW-NAS-JRB    SUNNY     65  45  48 N14G21    30.39F
FTW-SPINKS     SUNNY     64  41  42 N13       30.35F
ARLINGTON      SUNNY     65  39  38 N18       30.33S
6HR MIN TEMP:  55; 6HR MAX TEMP:  65;

GRAND PRAIRIE  SUNNY     64  43  45 MISG      30.35S
ADDISON        SUNNY     63  41  45 N17G29    30.33
MESQUITE       SUNNY     64  39  39 N17G23    30.32
LANCASTER      SUNNY     66  38  35 N18       30.33S
6HR MIN TEMP:  54; 6HR MAX TEMP:  66;

$$

TXZ091>094-102>105-117-120-121-131>134-311900-
NORTH CENTRAL TEXAS

CITY           SKY/WX    TMP DP  RH WIND       PRES   REMARKS
SHRMAN/DENISON MOSUNNY   60  44  56 N18G24    30.36F
6HR MIN TEMP:  48; 6HR MAX TEMP:  61;

GAINESVILLE    SUNNY     60  40  48 N20G25    30.38S
6HR MIN TEMP:  48; 6HR MAX TEMP:  60;

BOWIE          SUNNY     60  40  48 N10G22    30.38F
6HR MIN TEMP:  48; 6HR MAX TEMP:  60;

BRIDGEPORT     SUNNY     63  42  47 N12       30.39F
6HR MIN TEMP:  51; 6HR MAX TEMP:  63;

DECATUR        SUNNY     62  39  43 N10G17    30.37F
6HR MIN TEMP:  50; 6HR MAX TEMP:  62;

DENTON         SUNNY     63  40  42 N20G25    30.35F
6HR MIN TEMP:  48; 6HR MAX TEMP:  63;

MCKINNEY       SUNNY     63  41  44 N18       30.32F
6HR MIN TEMP:  49; 6HR MAX TEMP:  63; 6HR PCP: TRACE;

GREENVILLE     SUNNY     64  37  36 N13G24    30.31F
ROCKWALL       SUNNY     63  42  45 N17G26    30.31S
6HR MIN TEMP:  54; 6HR MAX TEMP:  64;

TERRELL        SUNNY     65  41  41 N17G26    30.31F
6HR MIN TEMP:  55; 6HR MAX TEMP:  66;

WAXAHACHIE     SUNNY     65  43  45 NW17      30.33F
6HR MIN TEMP:  53; 6HR MAX TEMP:  65;

CLEBURNE       SUNNY     64  43  45 N12G23    30.35S
GRANBURY       SUNNY     65  44  48 NW9       30.36F
6HR MIN TEMP:  51; 6HR MAX TEMP:  65;

$$

TXZ083>090-098>101-113>116-127>130-139>142-154-155-311900-
WESTERN NORTH TEXAS

CITY           SKY/WX    TMP DP  RH WIND       PRES   REMARKS
WICHITA FALLS  SUNNY     59  39  47 N14       30.42F
6HR MIN TEMP:  49; 6HR MAX TEMP:  59;

WF-KICKAPOO    SUNNY     59  38  45 N12       30.43F
6HR MIN TEMP:  51; 6HR MAX TEMP:  59;

VERNON         SUNNY     61  34  36 N13G21    30.44F
ABILENE        SUNNY     66  33  29 NE12      30.40F
6HR MIN TEMP:  48; 6HR MAX TEMP:  66;

ABILENE-DYESS  SUNNY     65  35  33 NE10G18   30.39F
6HR MIN TEMP:  46; 6HR MAX TEMP:  65;

BRECKENRIDGE   SUNNY     64  34  32 N12G21    30.38F HAZE
6HR MIN TEMP:  50; 6HR MAX TEMP:  65;

GRAHAM         SUNNY     61  41  47 N10G18    30.38F
6HR MIN TEMP:  47; 6HR MAX TEMP:  62;

MINERAL WELLS  SUNNY     64  39  39 N13G23    30.36F
6HR MIN TEMP:  49; 6HR MAX TEMP:  64;

STEPHENVILLE   SUNNY     64  38  38 N14       30.38F
6HR MIN TEMP:  52; 6HR MAX TEMP:  64;

COMANCHE       SUNNY     64  41  42 N10G18    30.37F
6HR MIN TEMP:  51; 6HR MAX TEMP:  64;

BROWNWOOD      SUNNY     66  36  32 N13       30.36F
COLEMAN        SUNNY     67  39  36 N13       30.38F
6HR MIN TEMP:  51; 6HR MAX TEMP:  67;

BRADY          SUNNY     68  36  30 N14       30.35F
$$

TXZ143>147-156>162-174-175-311900-
CENTRAL TEXAS

CITY           SKY/WX    TMP DP  RH WIND       PRES   REMARKS
WACO           SUNNY     69  41  36 N15G24    30.31F
6HR MIN TEMP:  54; 6HR MAX TEMP:  69;

WACO-MCGREGOR  SUNNY     68  43  40 N12G21    30.32F
6HR MIN TEMP:  54; 6HR MAX TEMP:  68;

HILLSBORO      SUNNY     67  41  39 N17G25    30.32F
6HR MIN TEMP:  53; 6HR MAX TEMP:  67;

CORSICANA      SUNNY     67  42  40 N15       30.31S
6HR MIN TEMP:  55; 6HR MAX TEMP:  67; 6HR PCP: TRACE;

MEXIA          SUNNY     67  43  42 N12G18    30.28F
6HR MIN TEMP:  55; 6HR MAX TEMP:  67;

HEARNE         SUNNY     72  44  35 N13G23    30.28S
6HR MIN TEMP:  51; 6HR MAX TEMP:  72;

CAMERON        SUNNY     71  42  35 N14G22    30.28F
6HR MIN TEMP:  55; 6HR MAX TEMP:  71;

TEMPLE         SUNNY     70  39  32 N13G18    30.30F
6HR MIN TEMP:  54; 6HR MAX TEMP:  70;

KILLEEN        SUNNY     70  37  30 N13       30.31F
6HR MIN TEMP:  53; 6HR MAX TEMP:  69;

KILLEEN-SKYLRK SUNNY     70  39  32 NW14G20   30.30S
6HR MIN TEMP:  55; 6HR MAX TEMP:  72;

GATESVILLE     SUNNY     66  37  34 N9G22     30.35F
HAMILTON       SUNNY     67  37  33 N13G22    30.35F
6HR MIN TEMP:  51; 6HR MAX TEMP:  67;

LAMPASAS       SUNNY     68  42  38 N10       30.32F
6HR MIN TEMP:  55; 6HR MAX TEMP:  68;

$$

TXZ095>097-106>112-122>126-135>138-148>153-164>167-311900-
EAST TEXAS

CITY           SKY/WX    TMP DP  RH WIND       PRES   REMARKS
PARIS          SUNNY     61  39  44 N17G26    30.31S
6HR MIN TEMP:  50; 6HR MAX TEMP:  61;

SULPHUR SPRNGS SUNNY     64  43  47 N22       30.31F
6HR MIN TEMP:  54; 6HR MAX TEMP:  64;

MOUNT PLEASANT SUNNY     66  41  40 N14G21    30.27F
6HR MIN TEMP:  51; 6HR MAX TEMP:  66;

MINEOLA        SUNNY     64  39  39 N14G21    30.29S
TYLER          SUNNY     67  41  38 N21G26    30.26S
6HR MIN TEMP:  52; 6HR MAX TEMP:  68;

LONGVIEW       SUNNY     68  44  42 N14       30.22F
6HR MIN TEMP:  50; 6HR MAX TEMP:  68;

MARSHALL       SUNNY     69  45  42 N15       30.24S
6HR MIN TEMP:  55; 6HR MAX TEMP:  69;

ATHENS         SUNNY     64  41  42 N15G22    30.26F
PALESTINE      SUNNY     68  46  45 N13G18    30.27F
JACKSONVILLE   SUNNY     67  43  41 NE10G17   30.26S
HENDERSON      SUNNY     68  43  40 N12G20    30.24S
6HR MIN TEMP:  54; 6HR MAX TEMP:  68;

NACOGDOCHES    SUNNY     70  45  40 N9G16     30.21F
6HR MIN TEMP:  50; 6HR MAX TEMP:  70;

LUFKIN         SUNNY     74  45  35 VRB7      30.21S
6HR MIN TEMP:  52; 6HR MAX TEMP:  74;

$$

SUPPLEMENTAL OBSERVATIONS (CENTRAL)

CITY           SKY/WX    TMP DP  RH WIND       PRES   REMARKS
CADDO GRASSLND   N/A     64  45  48 N7G17       N/A
PAT MAYSE LAKE   N/A     57  41  54 NW17        N/A
GREENVILLE       N/A     63  39  42 N17G26      N/A
CEDAR HILL       N/A     66  43  42 N9G17       N/A
PALESTINE        N/A     70  43  37 N13G21      N/A
MCGREGOR         N/A     70  41  35 VRB10G18    N/A
TEMPLE           N/A     70  39  32 N6G20       N/A
$$

SUPPLEMENTAL OBSERVATIONS (WEST)

CITY           SKY/WX    TMP DP  RH WIND       PRES   REMARKS
MILLERS CREEK    N/A     63  41  45 NE13G21     N/A
POSSUM KINGDOM   N/A     63  36  36 N12         N/A
LBJ GRASSLAND    N/A     63  39  42 N9G17       N/A
GRANBURY         N/A     64  43  45 N12         N/A
HAMBY            N/A     64  32  29 NE13        N/A



USA.gov is the U.S. government's official web portal to all federal, state and local government web resources and services.